Flag for Germany Weather past 2 weeks in Falkensee, Brandenburg, Germany

Now
66 °F

Passing clouds.


Feels Like: 66 °F
Forecast: 63 / 84 °F
Wind: 6 mph from East

Location: Berlin-Tegel

Current Time: Jul 1, 2015 at 9:09:04 AM

Latest Report: Jul 1, 2015 at 8:20 AM


Visibility: N/A

Pressure: 30.24 "Hg

Humidity: 56%

Dew point: 50 °F

Location of FalkenseeLocation

Historic Weather in Falkensee — Graph

°F

Falkensee temperature yesterday

Maximum temperature yesterday: 79 °F (at 5:50 PM)
Minimum temperature yesterday: 63 °F (at 4:50 AM)
Average temperature yesterday: 70 °F

Past Weeks' High & Low Weather Summary

 TemperatureHumidityPressure
High79 °F (Jun 29, 2:20 PM)100% (Jun 17, 2:50 AM)30.24 "Hg (Jun 17, 2:50 AM)
Low41 °F (Jun 17, 4:20 AM)28% (Jun 17, 3:50 PM)29.59 "Hg (Jun 23, 1:20 AM)
Average61 °F70%30.01 "Hg
* Reported Jun 16 7:20 AM — Jul 1 7:50 AM, Falkensee, Weather by CustomWeather, © 2015

Note: Actual official high and low records may vary slightly from our data, if they occured in-between our weather recording intervals... More about our weather records

Advertising

Falkensee weather history for previous 24 hours

 ConditionsComfort  
Time TempWeatherWind HumidityBarometerVisibility
7:50 AM
Wed, Jul 1
64 °FSunny.9 mph56%30.24 "Hg10 mi
7:20 AM63 °FPassing clouds.7 mph64%30.24 "HgN/A
6:50 AM63 °FPassing clouds.5 mph68%30.24 "HgN/A
6:20 AM59 °FPassing clouds.6 mph77%30.24 "HgN/A
5:50 AM59 °FPassing clouds.3 mph77%30.24 "HgN/A
5:20 AM59 °FPassing clouds.3 mph77%30.24 "HgN/A
4:50 AM59 °FPassing clouds.3 mph77%30.21 "HgN/A
4:20 AM59 °FPassing clouds.3 mph77%30.21 "HgN/A
3:50 AM59 °FPassing clouds.3 mph82%30.21 "HgN/A
3:20 AM61 °FPassing clouds.3 mph77%30.21 "HgN/A
2:50 AM61 °FClear.3 mph77%30.21 "Hg10 mi
2:20 AM61 °FPassing clouds.3 mph77%30.21 "HgN/A
1:50 AM63 °FPassing clouds.5 mph68%30.21 "HgN/A
1:20 AM63 °FPassing clouds.3 mph68%30.21 "HgN/A
12:50 AM64 °FPassing clouds.5 mph64%30.21 "HgN/A
12:20 AM64 °FPassing clouds.5 mph64%30.21 "HgN/A
11:50 PM
Tue, Jun 30
66 °FPassing clouds.5 mph60%30.21 "HgN/A
11:20 PM66 °FPassing clouds.6 mph56%30.21 "HgN/A
10:50 PM68 °FPassing clouds.7 mph53%30.18 "HgN/A
10:20 PM70 °FPassing clouds.7 mph46%30.18 "HgN/A
9:50 PM72 °FPassing clouds.5 mph44%30.18 "HgN/A
9:20 PM72 °FPassing clouds.6 mph41%30.15 "HgN/A
8:50 PM73 °FPassing clouds.6 mph38%30.15 "HgN/A
8:20 PM73 °FPassing clouds.9 mph36%30.15 "HgN/A
7:50 PM75 °FPassing clouds.8 mph36%30.15 "HgN/A
6:50 PM77 °FPassing clouds.7 mph32%30.15 "HgN/A
6:20 PM77 °FPassing clouds.7 mph34%30.15 "HgN/A
5:50 PM79 °FPassing clouds.7 mph32%30.15 "HgN/A
4:50 PM77 °FPassing clouds.9 mph34%30.15 "HgN/A
4:20 PM77 °FPassing clouds.8 mph36%30.15 "HgN/A
3:50 PM77 °FPassing clouds.8 mph34%30.15 "HgN/A
2:50 PM75 °FPassing clouds.6 mph36%30.15 "HgN/A
2:20 PM75 °FPassing clouds.8 mph39%30.15 "HgN/A
1:50 PM75 °FSunny.6 mph41%30.15 "Hg10 mi
1:20 PM73 °FScattered clouds.13 mph41%30.18 "HgN/A
12:50 PM73 °FScattered clouds.10 mph44%30.18 "HgN/A
12:20 PM73 °FScattered clouds.9 mph44%30.18 "HgN/A
11:50 AM73 °FScattered clouds.8 mph47%30.18 "HgN/A
11:20 AM72 °FScattered clouds.9 mph50%30.18 "HgN/A
10:50 AM70 °FScattered clouds.9 mph57%30.18 "HgN/A
10:20 AM70 °FScattered clouds.9 mph57%30.18 "HgN/A
9:50 AM70 °FPartly sunny.5 mph60%30.18 "HgN/A
9:20 AM70 °FPassing clouds.6 mph57%30.18 "HgN/A
Weather by CustomWeather, © 2015

See weather overviewHow to use our weather pages